{"data":{"norad_id":65430,"epoch":"2026-09-20T21:41:11.708736Z","epoch_age_seconds":79745,"freshness":"FRESH","line1":"1 65430U 25192AC  26263.90360774  .00017925  00000+0  54018-3 0  9996","line2":"2 65430  53.1572  41.9629 0001513  42.5116 317.6004 15.34411569 59322","mean_motion":15.34411569,"eccentricity":0.0001513,"inclination_deg":53.1572,"raan_deg":41.9629,"arg_perigee_deg":42.5116,"mean_anomaly_deg":317.6004,"bstar":0.00054018,"rev_number":5932,"period_min":93.847050497571,"perigee_km":461.63384099125,"apogee_km":463.70386884294,"semimajor_km":6840.8058549171,"source":"CELESTRAK","updated_at":"2026-09-21T09:00:35.607783Z"}}